Temperature
18 18 17 17 17 17 17 17 17 17 17 17 17 17 17 17 18 18 18 18 18 18 17 17 17 17 17 17 17 17 17 17 17 17 17 17 17 17 17 16 16 16 16
18 18 17 17 17 17 17 17 17 17 17 17 17 17 17 17 17 17 17 18 18 18 18 17 17 17 17 17 17 17 17 17 17 17 17 17 17 16 16 16 16 16 16
18 18 18 17 17 17 17 17 17 17 17 18 17 17 17 17 17 17 17 18 18 18 18 18 18 17 17 17 17 17 17 17 17 17 17 17 16 16 16 16 16 16 16
18 18 18 18 17 18 17 17 18 18 18 18 18 18 18 18 17 17 18 18 18 18 18 18 18 17 17 17 17 17 17 17 17 17 17 17 16 16 16 16 16 16 16
18 18 18 18 18 18 18 18 18 18 18 18 18 18 18 18 18 18 18 18 18 17 17 18 18 18 18 17 17 17 17 17 17 17 17 17 17 16 16 16 16 16 16
18 18 18 18 18 18 18 18 17 18 18 18 18 18 18 18 18 18 18 18 18 17 17 17 17 17 18 18 17 17 17 17 17 17 17 17 17 17 16 16 16 16 16
18 18 18 18 18 18 18 18 18 18 18 18 18 18 18 18 18 18 18 18 18 18 17 17 17 17 17 18 18 17 17 17 17 17 17 17 17 17 16 16 16 16 16
18 18 18 18 18 18 18 18 18 18 18 18 18 18 19 19 18 19 18 18 18 18 18 18 17 17 17 17 17 18 18 17 17 17 17 17 17 17 16 16 16 16 16
18 18 18 18 18 18 18 18 18 18 18 18 18 18 19 19 19 19 18 18 18 18 18 18 17 17 17 17 17 17 18 17 17 17 17 17 17 16 16 16 16 16 16
18 18 18 18 18 18 18 18 18 18 18 18 18 18 18 18 19 19 18 18 18 17 17 18 18 17 17 17 17 17 17 17 17 17 17 17 17 16 16 16 16 16 16
18 18 18 18 18 18 18 18 18 18 18 18 18 18 17 18 18 18 19 18 18 18 17 17 17 17 17 17 17 17 17 17 17 17 17 17 16 16 16 16 16 16 16
19 18 18 18 18 18 18 18 18 18 18 18 18 18 18 18 18 18 18 18 18 18 17 17 17 17 17 17 17 17 17 17 17 17 17 17 16 16 16 16 16 16 16
19 19 19 18 18 18 18 18 18 18 18 18 18 18 18 18 18 18 18 18 18 18 17 17 17 17 17 17 17 17 17 17 17 16 16 16 16 16 16 16 16 16 16
19 19 19 19 18 18 18 18 18 18 18 18 18 17 17 17 17 17 17 18 18 18 18 17 17 17 17 17 16 16 16 16 16 16 16 16 16 16 16 16 15 15 15
19 19 19 19 18 18 18 18 18 18 17 17 17 17 17 17 17 17 17 17 17 18 18 17 17 17 17 16 16 16 16 16 16 16 16 16 16 16 16 15 15 15 15
19 19 19 19 18 18 18 18 18 17 17 17 17 17 17 17 17 17 17 17 17 17 17 17 17 17 16 16 16 16 16 16 16 16 16 16 16 16 15 15 15 15 15
19 19 19 19 18 18 18 18 18 18 17 17 17 17 17 17 17 17 17 17 16 16 17 17 16 16 16 16 16 16 16 16 16 16 16 16 16 15 15 15 15 15 15
19 19 19 18 18 18 18 18 18 17 17 17 17 17 17 17 17 17 16 16 16 16 16 16 16 16 16 16 15 16 15 15 15 15 15 15 15 15 15 15 15 15 15
19 19 18 18 18 18 18 18 18 17 17 17 17 17 17 17 17 17 16 16 16 16 16 16 16 16 15 15 15 15 15 15 15 15 15 15 15 15 15 15 15 14 14
19 18 18 18 18 18 18 18 17 17 17 17 17 17 17 17 17 16 16 16 16 16 16 16 16 16 15 15 15 15 15 15 15 14 14 14 15 14 14 14 14 14 14
18 18 18 18 18 18 18 18 17 17 17 17 17 17 17 17 17 16 16 16 16 16 16 16 16 16 15 15 15 15 15 15 14 14 14 14 14 14 14 14 14 14 14
18 18 18 17 17 17 17 17 17 17 17 17 17 16 16 16 17 17 16 16 16 16 15 15 16 15 15 15 15 15 15 14 14 14 14 14 14 14 13 13 13 13 13
18 17 17 17 17 17 17 17 17 17 16 16 16 16 16 16 16 16 16 16 16 16 16 15 15 15 15 15 14 14 14 14 14 14 14 14 14 13 13 13 13 13 13
17 17 17 17 17 17 17 17 17 16 16 16 16 16 16 16 16 16 15 15 15 15 15 15 15 15 15 15 14 14 14 14 14 14 14 13 13 13 13 13 13 13 13
17 17 16 16 16 16 16 17 16 16 16 15 15 15 15 15 16 15 15 15 15 15 15 15 15 15 15 14 14 14 14 14 14 13 13 13 13 13 13 13 13 13 12
16 16 16 16 16 16 16 16 16 15 15 15 15 15 15 15 15 15 15 14 14 14 14 14 14 14 14 14 14 14 13 13 14 13 13 13 13 12 12 12 12 12 12
Wind_Speed
4 5 4 4 5 6 6 5 5 4 3 4 3 3 3 2 3 3 5 9 9 9 9 10 10 11 11 12 12 12 12 12 12 12 12 11 11 11 11 10 10 10 10
4 4 4 4 4 5 4 4 4 4 4 3 3 3 3 3 3 4 4 8 10 10 10 10 11 12 13 13 13 13 13 13 13 13 13 13 12 12 12 12 12 11 11
4 4 4 4 4 5 5 5 4 4 4 4 4 3 3 3 3 4 4 5 7 11 11 11 12 13 13 14 14 14 14 14 14 14 14 14 14 13 13 13 13 13 12
5 4 3 4 4 5 5 4 4 4 4 4 3 3 3 3 4 5 5 6 6 6 11 13 13 13 13 13 14 14 15 15 16 15 15 15 15 15 15 15 15 14 14
6 5 3 3 4 4 4 4 4 4 4 4 4 4 3 4 4 5 4 5 6 6 6 10 13 13 13 13 13 15 15 16 17 17 17 17 16 16 16 16 15 15 15
6 5 4 4 4 3 3 3 3 3 3 4 4 3 4 4 4 4 5 5 5 7 7 7 9 12 14 13 13 14 15 15 16 17 17 17 16 16 16 16 15 15 15
7 6 4 4 4 4 4 4 4 4 4 3 3 3 4 5 5 4 4 4 5 6 6 6 7 6 9 14 14 12 12 12 13 15 15 15 15 16 16 17 16 15 15
7 7 5 5 5 4 4 4 4 3 3 3 3 3 3 4 4 4 4 4 4 4 5 7 7 7 7 6 9 13 11 11 11 13 14 15 15 15 15 15 15 15 14
7 6 6 5 4 5 4 5 5 5 4 4 4 3 3 2 1 3 3 4 4 3 4 5 6 7 7 7 6 10 11 10 10 11 12 14 15 16 15 15 15 15 15
7 7 7 6 5 5 4 6 6 4 5 4 4 4 4 3 3 2 3 3 3 4 4 4 4 5 6 6 5 4 8 9 9 9 10 11 12 14 14 15 15 14 14
7 7 7 6 6 5 5 5 4 5 5 5 4 4 4 4 5 4 3 2 3 3 3 4 3 3 4 5 5 4 6 7 7 7 7 8 9 11 12 12 13 13 13
6 7 7 6 6 5 5 6 6 6 5 5 5 5 5 4 4 4 4 4 3 2 2 2 3 3 3 4 3 4 5 5 6 6 6 6 7 8 9 10 11 12 12
5 6 6 6 6 6 6 6 6 6 6 6 6 5 5 5 4 4 4 4 4 3 3 3 3 3 3 3 2 5 5 5 5 5 6 6 6 6 7 8 9 10 11
5 5 6 6 6 6 6 6 6 6 6 6 7 6 5 4 4 4 4 4 4 4 4 4 3 3 2 2 2 4 4 6 5 4 5 5 4 4 4 6 7 7 8
5 6 6 7 7 6 6 6 5 5 5 6 6 6 5 4 5 4 5 5 5 5 4 3 3 2 2 2 3 4 3 5 6 5 5 5 5 5 5 5 5 5 5
6 6 6 6 6 6 6 6 6 5 6 6 5 5 5 5 4 4 4 5 5 5 5 3 2 2 1 2 3 4 3 7 7 7 6 6 6 5 5 5 4 4 4
8 8 7 7 7 7 6 7 7 6 7 7 6 7 7 6 5 5 5 5 5 5 6 4 2 2 2 3 2 3 4 5 6 9 7 6 6 6 5 5 5 4 4
8 8 8 8 8 7 7 7 8 7 7 7 7 7 7 6 6 6 5 6 5 5 6 5 4 3 3 4 3 4 4 4 4 8 9 8 6 6 5 5 5 5 5
8 8 8 8 8 8 8 8 8 8 8 8 7 7 7 7 7 6 6 6 6 6 5 6 5 3 4 4 4 4 4 4 4 6 9 10 9 8 7 6 6 6 5
8 8 8 8 8 8 8 8 8 8 8 8 7 8 8 8 8 7 7 7 6 6 6 6 5 5 4 4 5 5 4 4 4 4 5 7 9 10 9 8 7 7 7
8 8 8 8 8 7 8 8 8 8 8 8 7 8 8 7 6 6 6 6 6 6 6 6 6 5 5 4 5 5 5 4 5 4 4 5 6 6 8 9 8 8 9
7 8 8 8 8 7 5 5 7 7 7 8 8 8 8 8 8 8 7 6 6 7 7 7 6 6 6 6 5 6 5 5 4 4 5 5 5 5 5 5 8 10 10
7 7 8 8 8 7 6 6 7 7 7 7 7 7 7 6 8 8 8 10 8 7 7 7 7 7 6 5 6 7 6 6 5 3 5 6 5 5 5 5 9 11 10
6 6 6 7 7 6 7 7 7 8 7 7 7 7 7 6 6 7 7 8 8 8 8 8 7 7 6 4 6 7 6 6 6 4 4 5 5 5 4 5 10 11 11
5 5 6 6 6 5 6 8 8 7 6 7 7 7 7 7 5 6 8 8 8 7 7 7 6 5 3 3 4 5 5 6 5 4 4 5 4 4 4 4 7 13 12
5 5 4 5 5 5 6 8 8 6 6 6 6 6 5 6 5 6 8 8 8 7 6 6 6 6 5 4 5 6 6 6 5 4 3 4 4 3 3 3 3 6 8
Wind_Direction
140 136 139 148 156 147 155 163 163 150 163 172 180 182 196 190 210 200 156 169 191 203 205 206 207 207 208 207 206 207 209 209 208 208 208 208 208 209 210 210 211 213 215
145 146 150 157 160 163 161 171 165 169 183 179 192 196 221 212 205 220 205 181 193 206 212 211 212 216 218 214 212 213 213 213 213 212 212 214 215 217 218 217 218 220 221
159 167 162 170 168 164 170 184 176 182 190 193 199 206 220 232 222 227 228 213 198 200 208 213 216 221 221 217 216 217 217 217 217 216 217 219 219 221 224 223 225 226 227
174 187 187 178 176 182 186 185 197 199 200 208 206 219 216 217 229 229 229 222 219 212 203 208 216 221 222 222 221 219 219 220 220 220 221 222 223 224 226 227 230 231 231
181 193 196 179 192 193 199 210 192 209 208 213 214 217 229 224 219 226 233 230 220 225 223 196 206 217 222 226 226 225 225 224 224 224 224 224 224 225 226 227 230 232 233
191 200 192 192 203 198 206 217 218 224 226 227 240 226 233 224 218 220 231 226 218 222 228 223 211 212 214 223 227 230 229 229 229 228 227 226 226 226 227 228 229 230 232
194 206 208 191 212 207 215 214 216 214 222 220 236 235 227 221 218 217 227 233 223 224 224 224 230 226 205 207 216 223 229 230 228 227 226 226 226 228 230 229 229 229 232
202 197 203 212 209 205 209 216 214 228 227 211 233 244 234 207 211 213 214 221 234 226 221 219 222 224 237 220 198 204 217 227 230 229 226 222 224 225 227 228 227 226 226
205 214 201 216 213 222 205 213 215 221 235 229 232 250 265 258 215 192 215 220 223 232 239 231 227 225 227 231 219 197 206 219 228 229 227 224 223 223 224 226 226 227 227
206 207 208 211 218 222 212 220 214 224 234 239 226 235 261 294 278 248 218 211 219 229 240 248 240 225 229 231 221 212 198 211 221 224 228 228 225 223 222 224 226 227 226
207 210 210 210 214 223 221 232 228 230 232 241 239 232 232 234 245 261 264 257 230 226 226 235 244 243 234 231 227 206 182 202 216 220 228 235 233 226 224 225 226 226 227
199 204 209 210 213 216 215 221 223 222 234 243 247 238 234 236 238 244 257 259 257 238 225 234 240 242 245 236 210 145 168 196 211 213 221 233 240 236 229 229 229 228 229
199 199 209 211 214 214 214 214 213 227 227 231 237 238 238 242 255 254 260 267 270 255 230 233 232 231 237 236 191 155 176 189 197 206 215 224 230 237 235 234 232 233 233
213 196 203 209 212 215 217 212 219 218 223 228 236 237 240 245 248 252 257 267 272 263 236 236 242 233 239 228 149 193 178 169 185 197 205 206 211 221 229 229 230 236 237
213 205 206 208 210 210 216 217 223 224 221 227 229 226 238 241 243 250 252 256 264 272 264 232 234 229 231 224 178 219 195 160 175 186 197 204 204 204 207 204 209 218 227
213 211 214 213 210 206 209 217 219 215 215 222 230 238 243 247 246 246 247 250 253 263 268 266 248 234 225 234 191 225 205 169 181 186 191 195 197 198 195 192 195 196 201
212 211 213 214 212 208 208 212 220 216 222 225 229 228 232 244 247 243 238 242 245 250 257 261 247 203 213 243 214 231 217 214 194 181 187 190 192 191 190 193 197 199 198
215 213 213 214 217 214 210 214 220 221 226 230 232 233 235 230 232 242 241 241 239 238 248 258 252 231 221 224 226 236 229 227 219 174 179 183 186 189 191 193 196 200 199
216 215 212 215 219 218 216 218 222 226 229 233 234 234 235 233 235 233 236 240 238 234 236 246 245 230 225 211 219 231 235 238 233 183 179 185 190 195 196 192 194 194 192
215 215 216 219 219 218 218 218 219 225 230 234 235 236 236 235 237 236 235 237 240 241 235 243 243 230 227 215 220 228 230 220 231 217 202 197 191 196 194 192 194 195 192
216 216 218 220 220 218 218 215 217 221 228 235 237 239 238 235 241 244 247 237 232 237 239 240 242 238 234 225 231 233 233 228 220 223 223 214 202 206 195 194 200 201 197
219 216 217 218 218 221 195 213 232 227 229 234 238 243 239 227 226 224 242 250 248 239 242 244 243 245 245 241 241 243 240 236 238 216 231 235 223 223 210 197 186 189 194
217 219 220 219 221 216 187 201 228 236 235 238 239 242 246 234 226 228 217 219 230 238 244 249 250 253 251 241 240 240 241 241 246 230 230 242 226 227 217 179 161 177 188
219 222 228 226 225 218 191 199 217 227 235 237 239 241 243 242 238 237 232 226 227 227 230 237 250 259 262 259 238 242 243 237 240 237 231 249 237 232 224 184 167 176 184
231 231 232 234 231 219 196 200 216 225 229 236 240 242 244 240 231 236 236 233 230 227 214 208 226 244 264 256 249 237 231 230 238 226 215 244 247 241 230 208 176 177 180
235 239 237 239 236 229 198 198 213 228 231 236 237 234 235 242 226 223 230 233 234 232 231 217 215 223 228 219 221 237 241 242 243 236 201 228 241 235 236 216 188 180 183
Height
1541 1543 1544 1545 1548 1549 1551 1552 1554 1554 1556 1557 1558 1559 1560 1561 1562 1563 1563 1562 1562 1563 1564 1565 1566 1566 1567 1568 1569 1570 1571 1571 1572 1573 1574 1575 1576 1577 1578 1579 1579 1580 1581
1542 1543 1545 1546 1548 1550 1551 1552 1554 1555 1556 1557 1558 1559 1559 1560 1560 1561 1562 1561 1561 1562 1562 1563 1564 1565 1566 1567 1567 1568 1569 1570 1571 1572 1573 1574 1574 1575 1576 1577 1578 1578 1579
1542 1544 1545 1546 1548 1549 1550 1552 1553 1554 1555 1556 1557 1558 1558 1558 1559 1559 1560 1561 1560 1560 1561 1561 1562 1563 1564 1565 1566 1566 1567 1568 1569 1570 1571 1571 1572 1573 1574 1575 1575 1576 1577
1542 1543 1545 1547 1548 1549 1550 1551 1552 1553 1555 1556 1556 1557 1557 1557 1557 1557 1558 1559 1559 1560 1559 1560 1560 1561 1562 1563 1563 1564 1565 1566 1567 1567 1568 1569 1569 1570 1571 1572 1573 1574 1574
1542 1543 1545 1546 1547 1548 1549 1551 1552 1553 1554 1554 1555 1555 1555 1556 1556 1556 1556 1557 1557 1557 1558 1558 1558 1559 1560 1560 1561 1562 1562 1563 1564 1565 1565 1566 1566 1567 1568 1569 1570 1570 1571
1542 1543 1544 1544 1546 1547 1548 1549 1550 1551 1552 1552 1554 1554 1554 1554 1554 1554 1554 1555 1555 1555 1556 1556 1556 1557 1557 1558 1558 1559 1560 1560 1561 1561 1562 1563 1563 1564 1565 1566 1566 1567 1568
1541 1542 1544 1544 1545 1546 1547 1548 1549 1549 1550 1551 1552 1552 1552 1552 1552 1552 1553 1553 1554 1554 1554 1554 1554 1555 1555 1555 1555 1556 1557 1557 1558 1558 1558 1559 1560 1561 1561 1562 1563 1563 1564
1540 1541 1541 1543 1544 1544 1545 1546 1547 1548 1549 1549 1550 1551 1551 1551 1550 1551 1551 1551 1551 1552 1551 1551 1552 1552 1552 1553 1553 1553 1553 1554 1554 1554 1555 1555 1556 1557 1558 1558 1559 1560 1560
1538 1539 1540 1542 1542 1543 1544 1544 1545 1546 1547 1548 1548 1549 1549 1548 1548 1549 1548 1548 1548 1549 1549 1549 1549 1549 1549 1550 1550 1549 1550 1550 1550 1551 1551 1552 1552 1553 1554 1554 1555 1555 1556
1537 1538 1539 1540 1540 1541 1542 1543 1544 1544 1545 1546 1546 1546 1547 1547 1547 1547 1547 1546 1546 1546 1546 1547 1547 1546 1546 1546 1546 1546 1546 1546 1546 1547 1547 1548 1548 1549 1550 1550 1551 1551 1552
1535 1536 1537 1538 1538 1539 1540 1541 1541 1542 1542 1543 1544 1544 1544 1544 1545 1545 1544 1544 1544 1544 1544 1544 1544 1544 1544 1543 1543 1543 1543 1543 1543 1543 1543 1544 1545 1545 1546 1546 1547 1547 1547
1533 1534 1535 1535 1536 1537 1537 1538 1539 1539 1539 1540 1541 1542 1542 1542 1542 1542 1542 1541 1541 1541 1541 1541 1541 1541 1541 1541 1540 1539 1539 1539 1539 1540 1540 1540 1541 1541 1542 1542 1542 1543 1543
1531 1531 1533 1533 1534 1535 1535 1536 1536 1537 1537 1537 1538 1539 1539 1539 1539 1539 1539 1539 1539 1539 1538 1539 1539 1538 1538 1538 1537 1536 1536 1536 1536 1536 1536 1537 1537 1537 1538 1538 1538 1539 1539
1529 1529 1530 1530 1531 1532 1533 1533 1534 1534 1534 1534 1535 1536 1536 1536 1536 1537 1537 1537 1536 1537 1536 1536 1536 1536 1535 1535 1534 1534 1533 1533 1533 1533 1533 1533 1533 1534 1534 1534 1534 1535 1535
1526 1526 1527 1528 1528 1529 1530 1530 1531 1531 1532 1532 1533 1533 1534 1534 1534 1534 1534 1534 1535 1534 1533 1533 1533 1533 1532 1532 1531 1531 1530 1530 1530 1530 1530 1530 1530 1530 1530 1530 1530 1531 1530
1522 1523 1524 1525 1525 1526 1526 1527 1528 1529 1529 1529 1530 1530 1530 1531 1531 1531 1531 1531 1531 1532 1531 1531 1530 1530 1529 1529 1529 1528 1528 1527 1526 1526 1526 1527 1527 1527 1527 1527 1527 1527 1526
1518 1519 1520 1521 1522 1522 1523 1524 1525 1526 1526 1526 1526 1526 1526 1526 1527 1527 1527 1527 1528 1528 1528 1528 1528 1527 1526 1526 1526 1525 1525 1524 1524 1523 1523 1523 1523 1523 1523 1523 1523 1523 1523
1514 1516 1516 1517 1518 1519 1519 1520 1521 1522 1523 1523 1523 1523 1523 1523 1523 1523 1524 1524 1524 1524 1524 1524 1524 1524 1523 1523 1523 1522 1522 1522 1521 1520 1520 1520 1520 1520 1520 1520 1520 1520 1520
1510 1512 1512 1513 1514 1515 1515 1516 1517 1518 1519 1519 1519 1519 1519 1519 1519 1520 1520 1520 1521 1521 1520 1521 1521 1521 1520 1520 1520 1520 1519 1519 1519 1518 1517 1517 1517 1517 1517 1516 1516 1516 1517
1506 1507 1508 1509 1510 1511 1511 1512 1513 1514 1514 1515 1515 1515 1516 1516 1516 1516 1516 1516 1517 1517 1517 1517 1518 1517 1517 1517 1516 1516 1516 1516 1515 1515 1514 1514 1513 1513 1513 1513 1513 1513 1513
1502 1503 1504 1505 1506 1506 1507 1508 1509 1509 1510 1510 1511 1511 1511 1511 1512 1512 1513 1513 1513 1513 1514 1514 1514 1514 1514 1513 1513 1513 1513 1513 1512 1512 1512 1511 1511 1510 1510 1509 1509 1509 1510
1497 1498 1499 1500 1501 1502 1503 1504 1504 1505 1505 1506 1506 1507 1507 1506 1507 1507 1508 1509 1509 1509 1510 1510 1510 1510 1510 1510 1510 1510 1510 1510 1509 1509 1508 1508 1508 1507 1507 1506 1505 1506 1506
1493 1493 1494 1495 1496 1496 1497 1499 1500 1500 1501 1501 1501 1502 1503 1503 1503 1503 1503 1504 1504 1504 1505 1505 1506 1505 1506 1506 1506 1506 1506 1506 1505 1505 1505 1504 1504 1504 1504 1503 1502 1502 1502
1488 1489 1490 1490 1491 1491 1492 1493 1495 1495 1496 1496 1496 1497 1497 1498 1498 1499 1500 1500 1500 1500 1500 1501 1501 1501 1501 1501 1501 1502 1502 1501 1501 1501 1501 1501 1500 1500 1500 1499 1498 1498 1498
1484 1484 1485 1485 1485 1486 1488 1488 1489 1490 1490 1491 1491 1492 1492 1493 1493 1494 1495 1495 1495 1495 1496 1496 1496 1496 1496 1497 1497 1498 1498 1498 1497 1497 1496 1497 1497 1496 1496 1495 1494 1494 1494
1479 1480 1480 1480 1480 1481 1482 1483 1484 1485 1485 1486 1487 1487 1487 1488 1489 1489 1490 1490 1491 1491 1491 1492 1492 1492 1492 1493 1493 1493 1494 1494 1494 1493 1492 1493 1493 1493 1492 1491 1491 1490 1490